FloripaSat 1
1 44885U 19093G   25179.77829950  .00003431  00000-0  29050-3 0  9992
2 44885  97.8154 267.4187 0011940 139.1350 221.0770 14.98629427299626
RS-44
1 44909U 19096E   25179.47347276  .00000013  00000-0  13455-4 0  9991
2 44909  82.5200 214.7255 0216337 251.3157 106.4351 12.79741432257102
UPMSat 2
1 46276U 20061E   25179.17108600  .00053185  00000-0  42401-3 0  9997
2 46276  97.2422 254.2090 0002331 154.4907 205.6471 15.71013634268387
SALSAT
1 46495U 20068K   25179.47412963  .00004716  00000-0  20374-3 0  9991
2 46495  97.8611 158.3788 0013145  96.5720 263.7012 15.22950054261402
CubeSX-Sirius-HSE
1 47951U 21022V   25157.62701764  .07883385  25648-5  89537-3 0  9993
2 47951  97.4004  72.1904 0010275 223.9924 136.0557 16.36879307233400
CubeSX-HSE
1 47952U 21022W   25157.69972699  .06655353  25454-5  93288-3 0  9992
2 47952  97.3980  72.5414 0010307 219.3637 140.6911 16.34906352233436
GRBAlpha
1 47959U 21022AD  25160.45426279  .07940347  25506-5  90589-3 0  9995
2 47959  97.3899  75.6235 0011032 227.2558 132.7812 16.36806138232695
TUBIN
1 48900U 21059X   25179.82291501  .00031848  00000-0  36575-3 0  9993
2 48900  97.6757 350.6358 0004233 154.7228 205.4236 15.61991241223047
LEDSAT
1 49069U 21073D   25179.71817950  .00052703  00000-0  57766-3 0  9994
2 49069  97.3877 262.0892 0007232   9.3900 350.7492 15.63071259214427
CUTE
1 49263U 21088D   25179.17792847  .00017270  00000-0  33622-3 0  9998
2 49263  97.4506 255.9794 0008977 165.5620 194.5888 15.47592075207304
TeikyoSat 4
1 49396U 21102B   25179.66543895  .00001313  00000-0  89843-4 0  9991
2 49396  97.4089 217.4045 0014032  71.2405 289.0344 15.07706171199422
Z-Sat
1 49399U 21102E   25179.84539450  .00002865  00000-0  15826-3 0  9998
2 49399  97.3784 220.7934 0019021  42.0080 318.2607 15.14545643199899
KOSEN 1
1 49402U 21102H   25179.75681221  .00004143  00000-0  19208-3 0  9996
2 49402  97.3689 224.2685 0016032  18.5842 341.5975 15.20504459200205
HO-113
1 50466U 21131B   25179.78876702  .00000297  00000-0  10643-3 0  9993
2 50466  98.5109 269.0479 0005400  83.4846 276.6958 14.40832682184211
Foresail-1
1 52766U 22057AL  25176.64799660  .13857605  27391-5  25307-3 0  9992
2 52766  97.5832 331.2310 0012137 233.7199 258.4922 16.46795272172486
SNUGLITE 2
1 52899U 22065F   25179.63722104  .00000628  00000-0  13106-3 0  9997
2 52899  98.1712 321.4274 0008658  59.8253 300.3805 14.63249096159272
UmKA 1 (RS40S)
1 57172U 23091G   25179.88724425  .00003580  00000-0  19215-3 0  9998
2 57172  97.5565 235.1699 0012693 266.6933  93.2847 15.15526221110401
CubeBel-2 (EU11S)
1 57175U 23091K   25179.79995277  .00005363  00000-0  25476-3 0  9993
2 57175  97.5564 236.3476 0010394 274.5329  85.4718 15.19614088110472
VERONIKA
1 58261U 23174F   25179.79499042  .00144845  00000-0  92643-3 0  9990
2 58261  97.4103 267.2029 0003640 267.2325  92.8524 15.75898549 91704
ENSO
1 58470U 23185J   25179.79160939  .00039964  00000-0  53926-3 0  9990
2 58470  97.3723 255.5522 0005342  21.5435 338.6045 15.57679818 88021
EIRSAT-1
1 58472U 23185L   25179.83665959  .00094598  00000-0  74137-3 0  9990
2 58472  97.3666 257.8617 0001876   7.3989 352.7301 15.71283222 88188
SONATE-2
1 59112U 24043Q   25179.84260289  .00010791  00000-0  30670-3 0  9991
2 59112  97.5164 311.4158 0011592  51.7108 308.5176 15.36284946 73294
MO-122
1 60209U 24125G   25179.52703158  .00011747  00000-0  32801-3 0  9993
2 60209  97.2770  30.9379 0020039  72.1069 288.2359 15.36665482 54867
GRBBeta
1 60237U 24128C   25179.83344608  .00002672  00000-0  20855-3 0  9995
2 60237  61.9921  12.4195 0053337  61.9119 298.7349 15.02774230 53098
Curium One
1 60242U 24128H   25179.50547993  .00004649  00000-0  32772-3 0  9994
2 60242  61.9822  11.5742 0053273  58.0177 302.6077 15.05348476 53086
ROBUSTA-3A
1 60243U 24128J   25179.51405358  .00004546  00000-0  32530-3 0  9992
2 60243  61.9893  12.4361 0052155  55.7435 304.8580 15.04876179 53078
CatSat
1 60246U 24125J   25179.84753467  .00006783  00000-0  22486-3 0  9999
2 60246  97.2571  30.2484 0042815  27.8835 332.4688 15.30693515 52936
HYPERVIEW-1G (RS66S)
1 61772U 24199AP  25179.83129827  .00013543  00000-0  38550-3 0  9992
2 61772  97.3504  48.6549 0015208 120.9086 239.3655 15.36120304 79915
AO-123
1 61781U 24199AY  25179.82731496  .00004402  00000-0  16042-3 0  9998
2 61781  97.3520  47.3290 0017248 126.1996 234.0842 15.28568434 79827
ZIMSAT 2
1 61783U 24199BA  25179.88052274  .00024633  00000-0  58020-3 0  9996
2 61783  97.3478  49.4698 0015107 118.0557 242.2220 15.41809111 83125
HADES-R (SO-124)
1 62690U 25009CK  25179.44901947  .00022666  00000-0  77618-3 0  9995
2 62690  97.4088 260.1946 0002650  60.6597 299.4908 15.30225323 25032
HYDRA-T
1 62692U 25009CM  25179.16966229  .00025284  00000-0  85813-3 0  9995
2 62692  97.4090 259.9571 0002356  59.6786 300.4687 15.30493812 24999
JINJUSat 1B
1 63210U 25052A   25179.47885096  .00006603  00000-0  30101-3 0  9990
2 63210  97.4394  73.3652 0002353 243.3173 116.7821 15.20978512 16128
NUSHSAT 1
1 63211U 25052B   25179.60228025  .00007763  00000-0  35057-3 0  9992
2 63211  97.4384  73.4926 0002284 253.4863 106.6121 15.21244611 16144
TEVEL2-4
1 63213U 25052D   25179.61968351  .00007099  00000-0  32380-3 0  9996
2 63213  97.4300  73.3572 0001423 291.4531  68.6553 15.20934125 16149
TEVEL2-5
1 63214U 25052E   25179.42314204  .00007078  00000-0  32306-3 0  9993
2 63214  97.4303  73.1618 0001433 293.5978  66.5106 15.20909625 16116
TEVEL2-6
1 63215U 25052F   25179.42577765  .00007124  00000-0  32555-3 0  9995
2 63215  97.4303  73.1597 0001496 295.1666  64.9414 15.20869354 16112
TEVEL2-1
1 63217U 25052H   25179.63697073  .00007503  00000-0  34484-3 0  9999
2 63217  97.4278  73.3023 0001956 319.5782  40.5307 15.20651736 16149
TEVEL2-2
1 63218U 25052J   25179.43985303  .00007566  00000-0  34773-3 0  9994
2 63218  97.4280  73.1087 0002005 320.6680  39.4409 15.20649504 16114
TEVEL2-3
1 63219U 25052K   25179.50584706  .00007448  00000-0  34239-3 0  9991
2 63219  97.4277  73.1728 0001980 321.8044  38.3051 15.20644363 16121
TEVEL2-8
1 63237U 25052AD  25179.45461337  .00007483  00000-0  35614-3 0  9996
2 63237  97.4343  73.0232 0006669 320.1222  39.9522 15.19428707 16101
TEVEL2-9
1 63238U 25052AE  25179.45771491  .00007219  00000-0  34434-3 0  9998
2 63238  97.4343  73.0215 0006766 319.8621  40.2113 15.19364802 16105
TEVEL2-7
1 63239U 25052AF  25179.26251028  .00007344  00000-0  35058-3 0  9999
2 63239  97.4345  72.8225 0006786 321.1073  38.9672 15.19328593 16072
HYDRA-W
1 63490U 25052BL  25179.19701966  .00017382  00000-0  71814-3 0  9994
2 63490  97.4293  73.1445 0009772 314.2940  45.7495 15.24022483 16091
HADES-ICM (SO-125)
1 63492U 25052BN  25179.21743909  .00015579  00000-0  65309-3 0  9990
2 63492  97.4295  73.1252 0010137 318.5401  41.5066 15.23551766 16095
